Location: Madrid
(40.4167°N, 3.7036°W)
Time: 02:20:55
(UTC+00:00)

ISS - Pass Details

Date: 12 May 2026
Orbit: 414 x 424 km, 51.6° (Epoch: 15 May)

Event Time Altitude Azimuth Distance (km) Brightness Sun altitude
Rises 20:27:27 0° 263° (W) 2,343 0.8 -11.6°
Reaches altitude 10° 20:29:47 10° 278° (W) 1,484 0.0 -12.0°
Maximum altitude 20:32:36 25° 336° (NNW) 880 -1.4 -12.4°
Drops below altitude 10° 20:35:27 10° 34° (NE) 1,490 -0.9 -12.8°
Sets 20:37:47 0° 48° (NE) 2,356 0.0 -13.2°
